This is the latest recevied weather packets stored in our database for station/object KC7RJK-2. If no packets are shown the sender has not sent any weather packets the latest 10 day(s).
| Time | Temp. | Humidity | Pressure | Rain* | Wind** | Luminosity | Snow |
|---|---|---|---|---|---|---|---|
| 1777936209 | 20° C | 67% | 1012.6 hPa | 0 mm | - | - | - |
| 1777935609 | 20.56° C | 68% | 1012.7 hPa | 0 mm | - | - | - |
| 1777935009 | 20.56° C | 69% | 1012.7 hPa | 0 mm | - | - | - |
| 1777934408 | 20.56° C | 68% | 1012.9 hPa | 0 mm | - | - | - |
| 1777933809 | 20.56° C | 67% | 1012.9 hPa | 0 mm | - | - | - |
| 1777933244 | 20.56° C | 68% | 1013.1 hPa | 0 mm | - | - | - |
| 1777933208 | 20.56° C | 68% | 1013.1 hPa | 0 mm | - | - | - |
| 1777932609 | 20.56° C | 68% | 1013.2 hPa | 0 mm | - | - | - |
| 1777932009 | 20° C | 70% | 1013.3 hPa | 0 mm | - | - | - |
| 1777931408 | 20° C | 69% | 1013.3 hPa | 0 mm | - | - | - |
| 1777930808 | 19.44° C | 71% | 1013.3 hPa | 0 mm | - | - | - |
| 1777930212 | 18.89° C | 68% | 1013.5 hPa | 0 mm | - | - | - |
| 1777929610 | 19.44° C | 68% | 1013.5 hPa | 0 mm | - | - | - |
| 1777929012 | 19.44° C | 69% | 1013.6 hPa | 0 mm | - | - | - |
| 1777928409 | 18.89° C | 70% | 1013.7 hPa | 0 mm | - | - | - |
| 1777927809 | 17.78° C | 74% | 1013.8 hPa | 0 mm | - | - | - |
| 1777927210 | 17.22° C | 72% | 1013.9 hPa | 0 mm | - | - | - |
| 1777926613 | 17.22° C | 72% | 1013.9 hPa | 0 mm | - | - | - |
| 1777926010 | 17.22° C | 74% | 1013.9 hPa | 0 mm | - | - | - |
| 1777925409 | 16.67° C | 74% | 1013.9 hPa | 0 mm | - | - | - |
| 1777924812 | 16.67° C | 74% | 1014 hPa | 0 mm | - | - | - |
| 1777924209 | 16.67° C | 76% | 1014 hPa | 0 mm | - | - | - |
| 1777923609 | 16.11° C | 75% | 1014 hPa | 0 mm | - | - | - |
| 1777923009 | 16.11° C | 76% | 1014 hPa | 0 mm | - | - | - |
| 1777922413 | 16.11° C | 77% | 1014 hPa | 0 mm | - | - | - |
* Rain latest hour (hover to see other rain measurements)
** Current wind speed in m/s (hover to see current wind gust speed)